User: anonymous
Location: Caltech
(34.1382°N, 118.1253°W)
Time: 02:48:40
(UTC-07:00)
Language:

Cosmos 2333 Rocket - Orbit

View from above orbital plane
View from above orbital plane
View from above satellite
View from above satellite

Ground track
Ground track

The orbit data is extracted from the following two-line orbital elements,

1 24298U 96051B   14271.90744593 -.00000161  00000-0 -60893-4 0  5651
2 24298 070.8642 353.5349 0017654 224.4605 255.9618 14.12460570931719
Epoch (UTC): 28 September 2014 21:46:43
Eccentricity: 0.0017654
inclination: 70.8642°
perigee height: 838 km
apogee height: 864 km
right ascension of ascending node: 353.5349°
argument of perigee: 224.4605°
revolutions per day: 14.12460570
mean anomaly at epoch: 255.9618°
orbit number at epoch: 93171

The dashed part of the orbit path shows where the satellite is in the earth's shadow,  

DLR